Meeker, CO

4:31 AM MDT on October 18, 2017 (GMT -0600)
Meeker

Weather History for KEEO - April, 2013

Change the Weather History Date:

Friday, April 19, 2013

  Actual Average Record
Temperature  
Mean Temperature 29 °F 43 °F  
Max Temperature 42 °F 58 °F 71 °F (1999)
Min Temperature 16 °F 28 °F 16 °F (2013)
Degree Days  
Heating Degree Days 36 22  
Month to date heating degree days 547 455  
Since 1 July heating degree days 7509 7187  
Cooling Degree Days 0 0  
Month to date cooling degree days 0 0  
Year to date cooling degree days 0 0  
Moisture  
Dew Point 19 °F    
Average Humidity 62    
Maximum Humidity 80    
Minimum Humidity 44    
Precipitation  
Precipitation 0.00 in 0.05 in 0.08 in (2011)
Month to date precipitation 2.58 0.94  
Year to date precipitation 4.12 4.12  
Sea Level Pressure  
Sea Level Pressure 30.24 in    
Wind  
Wind Speed 4 mph (East)    
Max Wind Speed 13 mph    
Max Gust Speed 17 mph    
Visibility 10 miles    
Events      
T = Trace of Precipitation, MM = Missing Value Source: NWS Daily Summary

Daily Weather History Graph

Daily Weather History Graph

Search for Another Location

Airport or City:

Trip Planner

Search our weather history database for the weather conditions in past years. The results will help you decide how hot, cold, wet, or windy it might be!

Date:

Astronomy

Apr. 19, 2013 Rise Set
Actual Time 6:27 AM MDT 7:54 PM MDT
Civil Twilight 5:58 AM MDT 8:22 PM MDT
Nautical Twilight 5:24 AM MDT 8:57 PM MDT
Astronomical Twilight 4:48 AM MDT 9:33 PM MDT
Moon 1:42 PM MDT (4/19) 2:44 AM MDT (4/19)
Length of Visible Light 14h 24m
Length of Day
13h 27m
Waxing Gibbous, 62% of the Moon is Illuminated
Apr 19
Waxing Gibbous
Apr 25
Full
May 2
Last Quarter
May 9
New
May 17
First Quarter

Hourly Weather History & Observations

Time (MDT) Temp. Windchill Dew Point Humidity Pressure Visibility Wind Dir Wind Speed Gust Speed Precip Events Conditions
12:53 AM 21.9 °F 15.7 °F 14.0 °F 72% 30.39 in 10.0 mi ENE 4.6 mph - N/A   Overcast
1:53 AM 21.0 °F 13.4 °F 15.1 °F 78% 30.38 in 10.0 mi NE 5.8 mph - N/A   Overcast
2:53 AM 21.9 °F 15.7 °F 15.1 °F 75% 30.36 in 10.0 mi ENE 4.6 mph - N/A   Overcast
3:53 AM 19.0 °F 11.1 °F 12.9 °F 77% 30.37 in 10.0 mi NE 5.8 mph - N/A   Overcast
4:53 AM 17.1 °F 10.0 °F 12.0 °F 81% 30.37 in 10.0 mi ENE 4.6 mph - N/A   Clear
5:53 AM 16.0 °F 10.4 °F 10.9 °F 81% 30.37 in 10.0 mi ENE 3.5 mph - N/A   Clear
6:53 AM 16.0 °F 10.4 °F 10.9 °F 81% 30.38 in 10.0 mi ENE 3.5 mph - N/A   Clear
7:53 AM 21.0 °F - 14.0 °F 74% 30.38 in 10.0 mi Calm Calm - N/A   Clear
8:53 AM 23.0 °F - 16.0 °F 74% 30.36 in 10.0 mi Calm Calm - N/A   Scattered Clouds
9:53 AM 28.0 °F - 16.0 °F 61% 30.31 in 10.0 mi Calm Calm - N/A   Clear
10:53 AM 32.0 °F - 16.0 °F 52% 30.28 in 10.0 mi Calm Calm - N/A   Clear
11:53 AM 37.0 °F - 17.1 °F 44% 30.25 in 10.0 mi Calm Calm - N/A   Partly Cloudy
12:53 PM 37.9 °F - 18.0 °F 45% 30.23 in 10.0 mi Calm Calm - N/A   Clear
1:53 PM 39.9 °F - 19.0 °F 43% 30.19 in 10.0 mi Calm Calm - N/A   Partly Cloudy
2:53 PM 41.0 °F 35.8 °F 21.9 °F 47% 30.15 in 10.0 mi SSW 8.1 mph - N/A   Overcast
3:53 PM 42.1 °F 36.1 °F 24.1 °F 49% 30.14 in 10.0 mi SSW 10.4 mph - N/A   Mostly Cloudy
4:53 PM 42.1 °F 37.1 °F 25.0 °F 51% 30.13 in 10.0 mi SSW 8.1 mph - N/A   Overcast
5:53 PM 42.1 °F 38.4 °F 23.0 °F 47% 30.13 in 10.0 mi SW 5.8 mph - N/A   Overcast
6:53 PM 39.9 °F 33.9 °F 25.0 °F 55% 30.13 in 10.0 mi SW 9.2 mph - N/A   Overcast
7:53 PM 39.0 °F 34.8 °F 24.1 °F 55% 30.11 in 10.0 mi SW 5.8 mph - N/A   Overcast
8:53 PM 39.0 °F - 24.1 °F 55% 30.11 in 10.0 mi Calm Calm - N/A   Overcast
9:53 PM 37.0 °F - 25.0 °F 62% 30.09 in 10.0 mi Calm Calm - N/A   Overcast
10:53 PM 36.0 °F 33.3 °F 27.0 °F 70% 30.07 in 10.0 mi NNE 3.5 mph - N/A   Overcast
11:53 PM 36.0 °F 33.3 °F 27.0 °F 70% 30.04 in 10.0 mi NE 3.5 mph - N/A   Overcast